| time (UTC) | temp F | wind direction | speed MPH | gust MPH | rain 1hr in | rain 24hr in | rain mn in | humidity % | barometer mb |
| 20260906082103 | 50 | 273 | 7.0 | 8.0 | 0.00 | 0.00 | 0.00 | 73 | 1016.8 |
| 20260906081603 | 50 | 275 | 5.0 | 7.0 | 0.00 | 0.00 | 0.00 | 72 | 1016.8 |
| 20260906080603 | 51 | 277 | 2.0 | 5.0 | 0.00 | 0.00 | 0.00 | 72 | 1017.0 |
| 20260906075602 | 51 | 277 | 4.0 | 7.0 | 0.00 | 0.00 | 0.00 | 72 | 1017.3 |
| 20260906075102 | 51 | 273 | 6.0 | 9.0 | 0.00 | 0.00 | 0.00 | 72 | 1017.4 |
| 20260906074103 | 51 | 280 | 7.0 | 10.0 | 0.00 | 0.00 | 0.00 | 72 | 1017.4 |
| 20260906073602 | 51 | 270 | 8.0 | 9.0 | 0.00 | 0.00 | 0.00 | 73 | 1017.4 |
| 20260906073102 | 51 | 275 | 7.0 | 12.0 | 0.00 | 0.00 | 0.00 | 72 | 1017.4 |
| 20260906072603 | 51 | 275 | 8.0 | 12.0 | 0.00 | 0.00 | 0.00 | 73 | 1017.3 |
| 20260906072102 | 51 | 279 | 6.0 | 7.0 | 0.00 | 0.00 | 0.00 | 73 | 1017.3 |
| 20260906071603 | 52 | 279 | 3.0 | 6.0 | 0.00 | 0.00 | 0.00 | 72 | 1017.0 |
| 20260906071104 | 52 | 279 | 3.0 | 3.0 | 0.00 | 0.00 | 0.00 | 72 | 1016.9 |
| 20260906070603 | 52 | 279 | 3.0 | 6.0 | 0.00 | 0.00 | 0.00 | 72 | 1017.1 |
| 20260906065603 | 52 | 279 | 10.0 | 12.0 | 0.00 | 0.00 | 0.00 | 73 | 1017.5 |
| 20260906065102 | 52 | 270 | 9.0 | 12.0 | 0.00 | 0.00 | 0.00 | 72 | 1017.6 |
| 20260906064604 | 52 | 284 | 3.0 | 7.0 | 0.00 | 0.00 | 0.00 | 72 | 1017.5 |
| 20260906064102 | 52 | 288 | 5.0 | 9.0 | 0.00 | 0.00 | 0.00 | 72 | 1017.6 |
| 20260906063604 | 52 | 288 | 6.0 | 9.0 | 0.00 | 0.00 | 0.00 | 72 | 1017.7 |
| 20260906063102 | 52 | 284 | 3.0 | 6.0 | 0.00 | 0.00 | 0.00 | 73 | 1018.0 |
| 20260906062603 | 52 | 319 | 2.0 | 3.0 | 0.00 | 0.00 | 0.00 | 72 | 1017.9 |
| 20260906062103 | 52 | 279 | 1.0 | 2.0 | 0.00 | 0.00 | 0.00 | 72 | 1017.9 |
| 20260906061103 | 52 | 279 | 2.0 | 6.0 | 0.00 | 0.00 | 0.00 | 71 | 1018.2 |
| 20260906060602 | 53 | 281 | 7.0 | 9.0 | 0.00 | 0.00 | 0.00 | 70 | 1018.2 |
| 20260906055603 | 53 | 279 | 3.0 | 5.0 | 0.00 | 0.00 | 0.00 | 71 | 1017.9 |
| 20260906055103 | 52 | 294 | 4.0 | 5.0 | 0.00 | 0.00 | 0.00 | 71 | 1018.0 |
| 20260906054602 | 53 | 300 | 2.0 | 6.0 | 0.00 | 0.00 | 0.00 | 71 | 1018.2 |
| 20260906054103 | 52 | 289 | 6.0 | 12.0 | 0.00 | 0.00 | 0.00 | 72 | 1018.1 |
| 20260906053603 | 52 | 289 | 5.0 | 7.0 | 0.00 | 0.00 | 0.00 | 73 | 1018.2 |
| 20260906053103 | 52 | 288 | 5.0 | 10.0 | 0.00 | 0.00 | 0.00 | 72 | 1018.2 |
| 20260906052603 | 52 | 277 | 7.0 | 9.0 | 0.00 | 0.00 | 0.00 | 72 | 1018.3 |
| 20260906051604 | 52 | 275 | 6.0 | 7.0 | 0.00 | 0.00 | 0.00 | 72 | 1018.4 |
| 20260906051103 | 52 | 280 | 3.0 | 3.0 | 0.00 | 0.00 | 0.00 | 72 | 1018.4 |
| 20260906050603 | 51 | 292 | 2.0 | 3.0 | 0.00 | 0.00 | 0.00 | 72 | 1018.8 |
| 20260906045103 | 51 | 284 | 2.0 | 3.0 | 0.00 | 0.00 | 0.00 | 73 | 1019.0 |
| 20260906044603 | 51 | 293 | 2.0 | 3.0 | 0.00 | 0.00 | 0.00 | 73 | 1019.0 |
| 20260906043603 | 51 | 277 | 2.0 | 3.0 | 0.00 | 0.00 | 0.00 | 73 | 1019.2 |
| 20260906043103 | 51 | 277 | 2.0 | 3.0 | 0.00 | 0.00 | 0.00 | 73 | 1019.2 |
| 20260906042602 | 51 | 277 | 2.0 | 3.0 | 0.00 | 0.00 | 0.00 | 73 | 1019.3 |
| 20260906042102 | 51 | 277 | 2.0 | 3.0 | 0.00 | 0.00 | 0.00 | 73 | 1019.3 |
| 20260906041603 | 51 | 277 | 2.0 | 3.0 | 0.00 | 0.00 | 0.00 | 74 | 1019.3 |
| 20260906041103 | 51 | 277 | 3.0 | 3.0 | 0.00 | 0.00 | 0.00 | 74 | 1019.4 |
| 20260906035603 | 51 | 277 | 2.0 | 6.0 | 0.00 | 0.00 | 0.00 | 75 | 1019.6 |
| 20260906035103 | 51 | 276 | 2.0 | 3.0 | 0.00 | 0.00 | 0.00 | 75 | 1019.5 |
| 20260906034603 | 51 | 277 | 3.0 | 5.0 | 0.00 | 0.00 | 0.00 | 75 | 1019.4 |
| 20260906034102 | 51 | 273 | 4.0 | 6.0 | 0.00 | 0.00 | 0.00 | 75 | 1019.5 |
| 20260906033602 | 51 | 275 | 2.0 | 3.0 | 0.00 | 0.00 | 0.00 | 75 | 1019.5 |
| 20260906033103 | 52 | 273 | 3.0 | 6.0 | 0.00 | 0.00 | 0.00 | 76 | 1019.4 |
| 20260906032603 | 52 | 273 | 5.0 | 6.0 | 0.00 | 0.00 | 0.00 | 75 | 1019.4 |
| 20260906032102 | 52 | 273 | 6.0 | 8.0 | 0.00 | 0.00 | 0.00 | 76 | 1019.3 |
| 20260906031602 | 52 | 274 | 7.0 | 8.0 | 0.00 | 0.00 | 0.00 | 76 | 1019.3 |
| 20260906031103 | 52 | 279 | 5.0 | 8.0 | 0.00 | 0.00 | 0.00 | 76 | 1019.2 |
| 20260906030602 | 52 | 274 | 4.0 | 6.0 | 0.00 | 0.00 | 0.00 | 75 | 1019.2 |
| 20260906025603 | 53 | 277 | 5.0 | 9.0 | 0.00 | 0.00 | 0.00 | 75 | 1019.2 |
| 20260906024604 | 54 | 281 | 3.0 | 5.0 | 0.00 | 0.00 | 0.00 | 74 | 1018.9 |
| 20260906023603 | 54 | 282 | 7.0 | 12.0 | 0.00 | 0.00 | 0.00 | 73 | 1018.9 |
| 20260906022603 | 55 | 282 | 10.0 | 13.0 | 0.00 | 0.00 | 0.00 | 72 | 1018.9 |
| 20260906022103 | 55 | 278 | 10.0 | 12.0 | 0.00 | 0.00 | 0.00 | 72 | 1018.8 |
| 20260906021603 | 55 | 285 | 5.0 | 6.0 | 0.00 | 0.00 | 0.00 | 72 | 1018.8 |
| 20260906021103 | 56 | 286 | 6.0 | 8.0 | 0.00 | 0.00 | 0.00 | 71 | 1019.5 |
| 20260906020602 | 56 | 283 | 6.0 | 9.0 | 0.00 | 0.00 | 0.00 | 70 | 1019.7 |
| 20260906015103 | 58 | 288 | 6.0 | 10.0 | 0.00 | 0.00 | 0.00 | 68 | 1019.5 |
| 20260906014603 | 58 | 286 | 5.0 | 10.0 | 0.00 | 0.00 | 0.00 | 67 | 1019.6 |
| 20260906014103 | 59 | 282 | 7.0 | 12.0 | 0.00 | 0.00 | 0.00 | 66 | 1019.5 |
| 20260906013602 | 59 | 288 | 5.0 | 9.0 | 0.00 | 0.00 | 0.00 | 66 | 1019.4 |
| 20260906013103 | 59 | 292 | 7.0 | 10.0 | 0.00 | 0.00 | 0.00 | 67 | 1019.3 |
| 20260906011602 | 59 | 287 | 12.0 | 15.0 | 0.00 | 0.00 | 0.00 | 67 | 1019.2 |
| 20260906011102 | 59 | 287 | 12.0 | 17.0 | 0.00 | 0.00 | 0.00 | 67 | 1019.3 |
| 20260906010602 | 59 | 283 | 10.0 | 15.0 | 0.00 | 0.00 | 0.00 | 67 | 1019.4 |
| 20260906005603 | 59 | 287 | 10.0 | 20.0 | 0.00 | 0.00 | 0.00 | 67 | 1019.4 |
| 20260906005103 | 60 | 288 | 9.0 | 18.0 | 0.00 | 0.00 | 0.00 | 66 | 1019.4 |
| 20260906004602 | 60 | 287 | 13.0 | 18.0 | 0.00 | 0.00 | 0.00 | 66 | 1019.4 |
| 20260906004103 | 60 | 282 | 13.0 | 21.0 | 0.00 | 0.00 | 0.00 | 66 | 1019.3 |
| 20260906003603 | 60 | 284 | 9.0 | 16.0 | 0.00 | 0.00 | 0.00 | 66 | 1019.2 |
| 20260906003104 | 60 | 293 | 11.0 | 17.0 | 0.00 | 0.00 | 0.00 | 67 | 1019.1 |
| 20260906002602 | 60 | 292 | 10.0 | 16.0 | 0.00 | 0.00 | 0.00 | 67 | 1019.2 |
| 20260906002102 | 60 | 291 | 14.0 | 23.0 | 0.00 | 0.00 | 0.00 | 66 | 1019.2 |
| 20260906001603 | 61 | 290 | 14.0 | 20.0 | 0.00 | 0.00 | 0.00 | 66 | 1018.8 |
| 20260906000603 | 62 | 289 | 13.0 | 25.0 | 0.00 | 0.00 | 0.00 | 63 | 1019.0 |
| 20260905235102 | 63 | 287 | 9.0 | 24.0 | 0.00 | 0.00 | 0.00 | 60 | 1018.8 |
| 20260905234602 | 63 | 288 | 10.0 | 22.0 | 0.00 | 0.00 | 0.00 | 60 | 1018.7 |
| 20260905234102 | 64 | 280 | 13.0 | 22.0 | 0.00 | 0.00 | 0.00 | 57 | 1018.6 |
| 20260905233603 | 64 | 286 | 10.0 | 15.0 | 0.00 | 0.00 | 0.00 | 56 | 1018.6 |
| 20260905233103 | 65 | 290 | 9.0 | 17.0 | 0.00 | 0.00 | 0.00 | 56 | 1018.4 |
| 20260905232603 | 66 | 287 | 9.0 | 15.0 | 0.00 | 0.00 | 0.00 | 54 | 1018.2 |
| 20260905232102 | 67 | 286 | 12.0 | 16.0 | 0.00 | 0.00 | 0.00 | 52 | 1018.0 |
| 20260905231603 | 69 | 299 | 9.0 | 16.0 | 0.00 | 0.00 | 0.00 | 50 | 1017.8 |
| 20260905231103 | 70 | 296 | 5.0 | 9.0 | 0.00 | 0.00 | 0.00 | 49 | 1017.6 |
| 20260905230603 | 70 | 289 | 3.0 | 10.0 | 0.00 | 0.00 | 0.00 | 47 | 1017.5 |
| 20260905225602 | 69 | 356 | 3.0 | 6.0 | 0.00 | 0.00 | 0.00 | 49 | 1017.4 |
| 20260905225103 | 68 | 314 | 2.0 | 7.0 | 0.00 | 0.00 | 0.00 | 49 | 1017.7 |
| 20260905224602 | 68 | 336 | 2.0 | 6.0 | 0.00 | 0.00 | 0.00 | 50 | 1017.8 |
| 20260905223603 | 67 | 345 | 2.0 | 5.0 | 0.00 | 0.00 | 0.00 | 50 | 1017.8 |
| 20260905223102 | 67 | 346 | 2.0 | 5.0 | 0.00 | 0.00 | 0.00 | 49 | 1017.9 |
| 20260905222603 | 67 | 33 | 5.0 | 8.0 | 0.00 | 0.00 | 0.00 | 48 | 1017.9 |
| 20260905222103 | 68 | 58 | 2.0 | 3.0 | 0.00 | 0.00 | 0.00 | 47 | 1017.8 |
| 20260905221602 | 68 | 26 | 3.0 | 6.0 | 0.00 | 0.00 | 0.00 | 50 | 1017.8 |
| 20260905221103 | 67 | 23 | 3.0 | 10.0 | 0.00 | 0.00 | 0.00 | 51 | 1017.8 |
| 20260905220602 | 67 | 59 | 6.0 | 10.0 | 0.00 | 0.00 | 0.00 | 48 | 1017.9 |
| 20260905215603 | 67 | 214 | 3.0 | 7.0 | 0.00 | 0.00 | 0.00 | 48 | 1017.9 |
| 20260905215103 | 67 | 71 | 1.0 | 7.0 | 0.00 | 0.00 | 0.00 | 49 | 1017.8 |
| 20260905214603 | 67 | 52 | 6.0 | 12.0 | 0.00 | 0.00 | 0.00 | 50 | 1017.9 |
| 20260905214103 | 67 | 63 | 6.0 | 10.0 | 0.00 | 0.00 | 0.00 | 50 | 1017.9 |
| 20260905213603 | 67 | 40 | 5.0 | 8.0 | 0.00 | 0.00 | 0.00 | 51 | 1018.0 |
| 20260905213103 | 67 | 68 | 9.0 | 12.0 | 0.00 | 0.00 | 0.00 | 51 | 1018.0 |
| 20260905212603 | 67 | 32 | 5.0 | 10.0 | 0.00 | 0.00 | 0.00 | 52 | 1018.1 |
| 20260905212103 | 67 | 53 | 5.0 | 8.0 | 0.00 | 0.00 | 0.00 | 54 | 1018.1 |
| 20260905211603 | 66 | 43 | 2.0 | 7.0 | 0.00 | 0.00 | 0.00 | 53 | 1018.2 |
| 20260905211103 | 66 | 69 | 4.0 | 14.0 | 0.00 | 0.00 | 0.00 | 52 | 1018.2 |
| 20260905210603 | 66 | 83 | 5.0 | 12.0 | 0.00 | 0.00 | 0.00 | 53 | 1018.2 |
| 20260905210103 | 66 | 70 | 4.0 | 12.0 | 0.00 | 0.00 | 0.00 | 54 | 1018.4 |
| 20260905205103 | 66 | 62 | 6.0 | 15.0 | 0.00 | 0.00 | 0.00 | 55 | 1018.4 |
| 20260905204602 | 66 | 148 | 5.0 | 9.0 | 0.00 | 0.00 | 0.00 | 54 | 1018.4 |
| 20260905204103 | 65 | 118 | 5.0 | 9.0 | 0.00 | 0.00 | 0.00 | 55 | 1018.4 |
| 20260905203603 | 65 | 78 | 8.0 | 12.0 | 0.00 | 0.00 | 0.00 | 56 | 1018.5 |
| 20260905203103 | 65 | 94 | 3.0 | 12.0 | 0.00 | 0.00 | 0.00 | 55 | 1018.5 |
| 20260905202603 | 65 | 132 | 6.0 | 12.0 | 0.00 | 0.00 | 0.00 | 54 | 1018.6 |
| 20260905202102 | 65 | 89 | 10.0 | 12.0 | 0.00 | 0.00 | 0.00 | 55 | 1018.6 |
| 20260905201604 | 64 | 159 | 3.0 | 10.0 | 0.00 | 0.00 | 0.00 | 55 | 1018.8 |
| 20260905201103 | 64 | 114 | 9.0 | 18.0 | 0.00 | 0.00 | 0.00 | 55 | 1018.8 |
| 20260905200603 | 64 | 147 | 6.0 | 12.0 | 0.00 | 0.00 | 0.00 | 56 | 1018.7 |
| 20260905195103 | 64 | 65 | 6.0 | 13.0 | 0.00 | 0.00 | 0.00 | 58 | 1018.8 |
| 20260905194603 | 64 | 67 | 5.0 | 14.0 | 0.00 | 0.00 | 0.00 | 60 | 1018.8 |
| 20260905194103 | 64 | 65 | 9.0 | 15.0 | 0.00 | 0.00 | 0.00 | 61 | 1018.8 |
| 20260905193603 | 64 | 56 | 6.0 | 12.0 | 0.00 | 0.00 | 0.00 | 59 | 1018.8 |
| 20260905193103 | 64 | 71 | 2.0 | 10.0 | 0.00 | 0.00 | 0.00 | 61 | 1018.9 |
| 20260905192602 | 63 | 88 | 4.0 | 12.0 | 0.00 | 0.00 | 0.00 | 58 | 1019.0 |
| 20260905192103 | 63 | 89 | 7.0 | 10.0 | 0.00 | 0.00 | 0.00 | 60 | 1019.0 |
| 20260905191603 | 63 | 67 | 7.0 | 10.0 | 0.00 | 0.00 | 0.00 | 60 | 1018.9 |
| 20260905191103 | 63 | 94 | 4.0 | 10.0 | 0.00 | 0.00 | 0.00 | 60 | 1019.2 |
| 20260905190603 | 63 | 64 | 6.0 | 12.0 | 0.00 | 0.00 | 0.00 | 60 | 1019.3 |
| 20260905190103 | 64 | 53 | 7.0 | 10.0 | 0.00 | 0.00 | 0.00 | 59 | 1019.2 |
| 20260905185602 | 65 | 58 | 3.0 | 7.0 | 0.00 | 0.00 | 0.00 | 61 | 1019.2 |
| 20260905185103 | 63 | 34 | 2.0 | 7.0 | 0.00 | 0.00 | 0.00 | 63 | 1019.5 |
| 20260905184603 | 63 | 45 | 3.0 | 9.0 | 0.00 | 0.00 | 0.00 | 61 | 1019.6 |
| 20260905184103 | 63 | 25 | 3.0 | 6.0 | 0.00 | 0.00 | 0.00 | 63 | 1019.6 |
| 20260905183603 | 62 | 15 | 3.0 | 7.0 | 0.00 | 0.00 | 0.00 | 65 | 1019.7 |
| 20260905183103 | 62 | 85 | 6.0 | 10.0 | 0.00 | 0.00 | 0.00 | 64 | 1019.7 |
| 20260905182103 | 61 | 59 | 2.0 | 7.0 | 0.00 | 0.00 | 0.00 | 65 | 1019.9 |
| 20260905181603 | 61 | 102 | 2.0 | 9.0 | 0.00 | 0.00 | 0.00 | 64 | 1020.1 |
| 20260905181102 | 62 | 89 | 4.0 | 10.0 | 0.00 | 0.00 | 0.00 | 65 | 1019.8 |
| 20260905180603 | 61 | 95 | 4.0 | 10.0 | 0.00 | 0.00 | 0.00 | 68 | 1019.9 |
| 20260905180103 | 60 | 75 | 1.0 | 6.0 | 0.00 | 0.00 | 0.00 | 69 | 1020.1 |
| 20260905175603 | 59 | 131 | 3.0 | 6.0 | 0.00 | 0.00 | 0.00 | 67 | 1020.2 |
| 20260905175103 | 59 | 96 | 3.0 | 6.0 | 0.00 | 0.00 | 0.00 | 66 | 1020.3 |
| 20260905174603 | 59 | 92 | 5.0 | 6.0 | 0.00 | 0.00 | 0.00 | 71 | 1020.2 |
| 20260905174103 | 59 | 43 | 5.0 | 9.0 | 0.00 | 0.00 | 0.00 | 71 | 1020.2 |
| 20260905173103 | 59 | 92 | 2.0 | 7.0 | 0.00 | 0.00 | 0.00 | 69 | 1020.2 |
| 20260905172603 | 59 | 54 | 3.0 | 6.0 | 0.00 | 0.00 | 0.00 | 69 | 1020.3 |
| 20260905172103 | 58 | 71 | 6.0 | 7.0 | 0.00 | 0.00 | 0.00 | 71 | 1020.5 |
| 20260905171603 | 58 | 90 | 2.0 | 9.0 | 0.00 | 0.00 | 0.00 | 71 | 1020.4 |
| 20260905170602 | 59 | 86 | 5.0 | 8.0 | 0.00 | 0.00 | 0.00 | 69 | 1019.6 |
| 20260905165602 | 57 | 55 | 2.0 | 6.0 | 0.00 | 0.00 | 0.00 | 74 | 1019.8 |
| 20260905165103 | 57 | 72 | 3.0 | 6.0 | 0.00 | 0.00 | 0.00 | 74 | 1019.9 |
| 20260905164103 | 56 | 78 | 4.0 | 6.0 | 0.00 | 0.00 | 0.00 | 76 | 1020.1 |
| 20260905163603 | 56 | 69 | 3.0 | 5.0 | 0.00 | 0.00 | 0.00 | 79 | 1020.1 |
| 20260905163103 | 55 | 73 | 3.0 | 6.0 | 0.00 | 0.00 | 0.00 | 79 | 1020.1 |
| 20260905162602 | 55 | 68 | 3.0 | 5.0 | 0.00 | 0.00 | 0.00 | 79 | 1020.1 |
| 20260905161603 | 55 | 73 | 3.0 | 5.0 | 0.00 | 0.00 | 0.00 | 79 | 1020.2 |
| 20260905161103 | 55 | 71 | 3.0 | 5.0 | 0.00 | 0.00 | 0.00 | 78 | 1020.0 |
| 20260905160603 | 55 | 62 | 3.0 | 5.0 | 0.00 | 0.00 | 0.00 | 80 | 1019.8 |
| 20260905155103 | 55 | 78 | 4.0 | 6.0 | 0.00 | 0.00 | 0.00 | 80 | 1019.7 |
| 20260905154602 | 55 | 80 | 5.0 | 6.0 | 0.00 | 0.00 | 0.00 | 79 | 1019.7 |
| 20260905154102 | 55 | 75 | 3.0 | 3.0 | 0.00 | 0.00 | 0.00 | 78 | 1019.7 |
| 20260905153603 | 55 | 80 | 3.0 | 3.0 | 0.00 | 0.00 | 0.00 | 78 | 1019.8 |
| 20260905152103 | 54 | 91 | 3.0 | 5.0 | 0.00 | 0.00 | 0.00 | 80 | 1020.1 |
| 20260905151603 | 54 | 92 | 3.0 | 3.0 | 0.00 | 0.00 | 0.00 | 80 | 1020.1 |
| 20260905151102 | 54 | 95 | 3.0 | 3.0 | 0.00 | 0.00 | 0.00 | 78 | 1020.1 |
| 20260905150603 | 53 | 160 | 2.0 | 3.0 | 0.00 | 0.00 | 0.00 | 78 | 1020.0 |
| 20260905145602 | 53 | 160 | 2.0 | 3.0 | 0.00 | 0.00 | 0.00 | 80 | 1020.1 |
| 20260905145103 | 54 | 160 | 2.0 | 3.0 | 0.00 | 0.00 | 0.00 | 81 | 1019.9 |
| 20260905144603 | 53 | 216 | 1.0 | 3.0 | 0.00 | 0.00 | 0.00 | 82 | 1019.8 |
| 20260905144102 | 52 | 209 | 1.0 | 2.0 | 0.00 | 0.00 | 0.00 | 85 | 1020.0 |
| 20260905143603 | 51 | 209 | 1.0 | 2.0 | 0.00 | 0.00 | 0.00 | 85 | 1020.1 |
| 20260905143102 | 50 | 209 | 1.0 | 2.0 | 0.00 | 0.00 | 0.00 | 87 | 1020.3 |
| 20260905142603 | 49 | 209 | 1.0 | 2.0 | 0.00 | 0.00 | 0.00 | 85 | 1020.3 |
| 20260905141602 | 47 | 209 | 1.0 | 2.0 | 0.00 | 0.00 | 0.00 | 87 | 1020.7 |
| 20260905140603 | 44 | 209 | 2.0 | 3.0 | 0.00 | 0.00 | 0.00 | 87 | 1020.7 |
| 20260905140103 | 43 | 209 | 2.0 | 3.0 | 0.00 | 0.00 | 0.00 | 88 | 1020.6 |
| 20260905135603 | 43 | 209 | 2.0 | 3.0 | 0.00 | 0.00 | 0.00 | 84 | 1020.7 |
| 20260905135103 | 44 | 209 | 2.0 | 3.0 | 0.00 | 0.00 | 0.00 | 85 | 1020.6 |
| 20260905134603 | 44 | 209 | 2.0 | 2.0 | 0.00 | 0.00 | 0.00 | 86 | 1020.5 |
| 20260905134103 | 44 | 209 | 2.0 | 3.0 | 0.00 | 0.00 | 0.00 | 85 | 1020.5 |
| 20260905133603 | 44 | 209 | 2.0 | 3.0 | 0.00 | 0.00 | 0.00 | 84 | 1020.4 |
| 20260905133103 | 44 | 209 | 3.0 | 3.0 | 0.00 | 0.00 | 0.00 | 85 | 1020.4 |
| 20260905132603 | 44 | 209 | 2.0 | 3.0 | 0.00 | 0.00 | 0.00 | 86 | 1020.3 |
| 20260905132102 | 44 | 209 | 1.0 | 2.0 | 0.00 | 0.00 | 0.00 | 86 | 1020.2 |
| 20260905131103 | 43 | 209 | 2.0 | 3.0 | 0.00 | 0.00 | 0.00 | 88 | 1020.1 |
| 20260905130603 | 42 | 209 | 2.0 | 3.0 | 0.00 | 0.00 | 0.00 | 89 | 1020.2 |
| 20260905125603 | 42 | 209 | 2.0 | 3.0 | 0.00 | 0.00 | 0.00 | 87 | 1020.1 |
| 20260905125103 | 42 | 208 | 2.0 | 3.0 | 0.00 | 0.00 | 0.00 | 87 | 1020.1 |
| 20260905124605 | 42 | 205 | 3.0 | 3.0 | 0.00 | 0.00 | 0.00 | 88 | 1020.0 |
| 20260905124102 | 42 | 205 | 2.0 | 3.0 | 0.00 | 0.00 | 0.00 | 89 | 1020.0 |
| 20260905123603 | 41 | 205 | 3.0 | 3.0 | 0.00 | 0.00 | 0.00 | 88 | 1020.0 |
| 20260905123103 | 41 | 206 | 2.0 | 3.0 | 0.00 | 0.00 | 0.00 | 88 | 1020.0 |
| 20260905122603 | 41 | 206 | 3.0 | 5.0 | 0.00 | 0.00 | 0.00 | 89 | 1020.0 |
| 20260905122102 | 40 | 206 | 5.0 | 5.0 | 0.00 | 0.00 | 0.00 | 90 | 1020.1 |
| 20260905121603 | 40 | 213 | 3.0 | 5.0 | 0.00 | 0.00 | 0.00 | 89 | 1020.1 |
| 20260905121103 | 41 | 144 | 4.0 | 5.0 | 0.00 | 0.00 | 0.00 | 87 | 1019.9 |
| 20260905120603 | 42 | 144 | 2.0 | 3.0 | 0.00 | 0.00 | 0.00 | 85 | 1019.6 |
| 20260905115603 | 43 | 144 | 2.0 | 3.0 | 0.00 | 0.00 | 0.00 | 87 | 1019.6 |
| 20260905115103 | 43 | 144 | 2.0 | 2.0 | 0.00 | 0.00 | 0.00 | 88 | 1019.6 |
| 20260905114603 | 43 | 144 | 2.0 | 3.0 | 0.00 | 0.00 | 0.00 | 89 | 1019.6 |
| 20260905114103 | 42 | 144 | 3.0 | 3.0 | 0.00 | 0.00 | 0.00 | 89 | 1019.6 |
| 20260905113603 | 41 | 144 | 3.0 | 5.0 | 0.00 | 0.00 | 0.00 | 90 | 1019.9 |
| 20260905113103 | 40 | 144 | 3.0 | 3.0 | 0.00 | 0.00 | 0.00 | 90 | 1019.8 |
| 20260905112603 | 40 | 138 | 3.0 | 3.0 | 0.00 | 0.00 | 0.00 | 88 | 1019.8 |
| 20260905112103 | 41 | 134 | 0.0 | 3.0 | 0.00 | 0.00 | 0.00 | 86 | 1019.7 |
| 20260905111603 | 42 | 85 | 0.0 | 0.0 | 0.00 | 0.00 | 0.00 | 84 | 1019.5 |
| 20260905110603 | 44 | 74 | 0.0 | 0.0 | 0.00 | 0.00 | 0.00 | 86 | 1019.2 |
| 20260905105603 | 44 | 74 | 0.0 | 0.0 | 0.00 | 0.00 | 0.00 | 85 | 1018.9 |
| 20260905105103 | 45 | 74 | 0.0 | 0.0 | 0.00 | 0.00 | 0.00 | 85 | 1018.8 |
| 20260905104603 | 45 | 74 | 0.0 | 0.0 | 0.00 | 0.00 | 0.00 | 86 | 1018.8 |
| 20260905104102 | 44 | 74 | 0.0 | 0.0 | 0.00 | 0.00 | 0.00 | 85 | 1018.9 |
| 20260905103603 | 45 | 74 | 0.0 | 0.0 | 0.00 | 0.00 | 0.00 | 85 | 1018.7 |
| 20260905103103 | 45 | 74 | 0.0 | 0.0 | 0.00 | 0.00 | 0.00 | 85 | 1018.7 |
| 20260905102603 | 45 | 74 | 0.0 | 0.0 | 0.00 | 0.00 | 0.00 | 85 | 1018.7 |
| 20260905101603 | 44 | 74 | 0.0 | 2.0 | 0.00 | 0.00 | 0.00 | 88 | 1018.6 |
| 20260905101103 | 44 | 74 | 2.0 | 3.0 | 0.00 | 0.00 | 0.00 | 87 | 1018.8 |
| 20260905100602 | 44 | 73 | 4.0 | 5.0 | 0.00 | 0.00 | 0.00 | 85 | 1019.0 |
| 20260905095603 | 46 | 244 | 0.0 | 0.0 | 0.00 | 0.00 | 0.00 | 82 | 1018.6 |
| 20260905094603 | 47 | 244 | 0.0 | 1.0 | 0.00 | 0.00 | 0.00 | 82 | 1018.3 |
| 20260905094103 | 48 | 244 | 1.0 | 2.0 | 0.00 | 0.00 | 0.00 | 80 | 1018.3 |
| 20260905093103 | 48 | 244 | 1.0 | 2.0 | 0.00 | 0.00 | 0.00 | 84 | 1018.4 |
| 20260905092602 | 47 | 244 | 0.0 | 0.0 | 0.00 | 0.00 | 0.00 | 85 | 1018.5 |
| 20260905092103 | 46 | 244 | 0.0 | 1.0 | 0.00 | 0.00 | 0.00 | 86 | 1018.7 |
| 20260905091603 | 45 | 244 | 0.0 | 2.0 | 0.00 | 0.00 | 0.00 | 88 | 1018.6 |
| 20260905091103 | 45 | 244 | 2.0 | 3.0 | 0.00 | 0.00 | 0.00 | 89 | 1018.7 |
| 20260905090603 | 44 | 244 | 0.0 | 0.0 | 0.00 | 0.00 | 0.00 | 88 | 1018.8 |
| 20260905085603 | 44 | 244 | 3.0 | 5.0 | 0.00 | 0.00 | 0.00 | 85 | 1018.8 |
| 20260905085103 | 44 | 236 | 5.0 | 6.0 | 0.00 | 0.00 | 0.00 | 87 | 1018.8 |
| 20260905084603 | 44 | 236 | 5.0 | 5.0 | 0.00 | 0.00 | 0.00 | 85 | 1018.8 |
| 20260905084102 | 44 | 236 | 5.0 | 5.0 | 0.00 | 0.00 | 0.00 | 86 | 1018.8 |
| 20260905083603 | 44 | 236 | 3.0 | 5.0 | 0.00 | 0.00 | 0.00 | 84 | 1018.9 |
| 20260905083103 | 45 | 236 | 5.0 | 5.0 | 0.00 | 0.00 | 0.00 | 83 | 1018.9 |
| 20260905082603 | 46 | 240 | 3.0 | 3.0 | 0.00 | 0.00 | 0.00 | 83 | 1018.6 |